Location: Baix
(44.7118°N, 4.7648°E)
Time: 09:47:57
(UTC+00:00)

Tiros 1 despin weight - Pass Details

Date: 27 November 2020
Orbit: 594 x 641 km, 48.2° (Epoch: 17 January)

Event Time Altitude Azimuth Distance (km) Brightness Sun altitude
Rises 19:05:21 0° 285° (WNW) 2,932 ? -31.8°
Reaches altitude 10° 19:08:19 10° 266° (W) 2,013 ? -32.3°
Maximum altitude 19:11:24 18° 224° (SW) 1,547 ? -32.8°
Enters shadow 19:11:28 18° 223° (SW) 1,547 ? -32.8°
